Theta_e
310 309 309 310 310 310 312 315 317 324 328 330 331 331 331 331 331 331 330 327 326 326 325 325 325 323 320 315 312 309 303 296
310 309 308 308 308 309 310 311 312 316 323 326 328 328 328 328 328 329 328 326 325 323 324 324 323 319 313 311 308 303 296 293
309 309 308 308 308 308 309 311 312 314 314 320 325 325 325 325 325 326 327 326 326 322 321 321 319 313 310 308 304 297 293 293
310 310 309 308 308 309 309 311 312 312 312 312 313 319 323 323 323 324 324 323 320 319 319 317 314 310 307 304 300 294 293 292
311 310 309 309 308 309 310 310 311 310 311 312 312 313 315 316 317 319 319 319 317 316 315 314 310 306 302 300 295 293 292 291
311 312 310 309 308 308 309 309 309 308 309 310 311 311 311 312 312 313 315 315 314 312 308 309 304 306 298 296 293 292 291 290
310 310 309 309 308 307 307 307 307 307 308 309 309 309 309 309 310 311 310 309 309 306 306 303 305 302 295 295 292 291 290 289
309 309 309 308 308 307 306 306 305 306 307 308 308 308 307 307 307 307 306 305 303 302 303 301 304 296 293 293 292 291 290 289
308 308 308 308 307 306 306 305 305 304 305 305 305 306 306 305 303 302 302 302 301 300 300 301 297 293 291 291 291 290 289 288
305 305 306 306 306 305 304 303 303 302 302 303 304 304 302 301 301 300 297 296 296 296 295 293 293 291 291 290 289 289 288 287
303 303 304 305 304 303 302 302 301 300 301 301 302 303 302 301 299 298 296 294 293 292 292 291 291 290 290 290 289 288 287 286
302 301 300 300 301 301 300 300 300 299 299 299 299 300 300 298 296 296 294 293 292 291 290 290 291 290 290 289 288 287 287 286
298 298 298 298 298 299 299 299 299 298 298 297 297 297 297 297 295 293 292 290 289 289 289 289 289 290 288 288 287 287 287 287
295 295 294 296 296 296 296 297 297 296 296 295 294 294 294 294 293 291 290 289 289 288 287 287 287 288 289 288 287 286 286 287
293 293 291 293 294 294 295 295 295 294 293 292 292 291 291 291 291 290 289 289 289 288 288 287 287 287 288 288 288 287 286 287
291 291 290 292 292 293 293 294 293 293 292 291 290 290 289 289 289 289 290 290 289 289 289 288 286 287 287 288 287 288 287 287
289 289 289 290 290 291 291 291 291 291 291 290 289 289 288 288 288 288 288 289 289 289 289 288 288 287 287 287 286 287 287 286
286 286 287 288 288 288 289 290 290 289 289 289 289 288 288 288 288 288 287 287 287 287 287 287 288 287 287 286 285 286 286 286
284 284 284 285 284 285 287 288 288 288 288 288 288 287 287 287 287 287 287 286 285 286 285 285 286 287 287 286 285 285 285 285
281 280 280 281 281 284 285 286 287 286 286 286 286 286 286 286 286 286 286 286 286 285 285 285 285 285 285 285 285 286 285 284
Wind_Speed
8 11 15 16 18 24 30 34 37 32 33 33 33 32 32 29 30 30 28 27 33 36 36 33 30 29 29 26 23 21 20 19
6 6 8 10 13 17 22 25 26 32 31 30 29 28 29 30 30 34 31 32 31 34 37 35 35 32 30 27 24 24 22 21
4 6 7 8 10 12 13 16 19 20 22 24 22 24 30 31 33 34 37 33 31 35 37 37 34 34 31 29 27 27 26 24
2 3 6 8 10 11 13 15 15 15 19 21 23 23 22 27 30 33 34 34 32 35 39 39 37 34 31 29 30 29 26 24
5 4 6 7 8 8 9 10 12 16 16 17 20 22 24 24 28 32 30 33 34 37 40 39 38 34 32 32 31 28 26 25
7 4 5 5 7 9 10 12 14 15 17 19 22 22 23 28 28 29 30 33 33 37 38 39 36 35 36 34 33 32 28 25
4 3 4 6 9 12 12 15 17 17 20 19 21 22 24 24 25 26 29 30 33 37 39 39 36 38 39 37 35 31 29 27
4 4 5 8 11 12 12 13 18 20 21 22 22 21 22 22 23 26 28 31 34 37 41 41 38 38 39 36 34 32 29 28
4 6 4 5 7 9 12 16 21 22 24 22 21 22 22 23 24 26 29 32 35 38 40 38 38 38 37 33 31 29 27 27
6 8 9 4 5 7 11 15 20 24 23 22 22 23 23 24 25 25 27 29 33 36 36 36 36 36 36 33 28 28 27 26
9 11 9 6 4 6 9 13 18 20 22 23 24 25 25 25 25 25 26 28 29 30 31 33 33 33 34 33 32 29 28 25
5 7 10 12 6 4 6 9 12 14 16 18 21 23 23 21 22 23 24 26 28 28 29 29 29 33 35 34 33 32 29 28
7 9 9 10 8 6 6 9 11 11 11 14 17 20 21 21 21 22 23 24 23 24 26 28 31 32 31 31 32 30 30 31
13 11 13 12 9 7 7 10 8 7 8 10 13 17 20 21 22 22 24 22 21 22 21 23 29 28 29 31 29 29 28 28
13 13 13 14 12 10 8 8 7 6 6 7 9 12 16 18 21 22 22 21 21 22 23 23 30 34 34 32 28 26 28 28
12 11 12 14 14 13 10 7 6 6 6 6 6 9 12 17 19 21 23 26 25 27 28 28 28 40 43 41 38 36 32 28
12 11 12 13 14 12 10 8 7 6 6 5 5 7 10 12 16 19 20 23 27 26 31 32 31 32 39 39 37 33 30 26
12 12 13 14 15 14 11 8 6 5 7 7 6 6 8 9 10 12 16 24 23 29 28 28 34 30 32 38 34 31 27 25
13 15 14 13 15 14 12 10 8 6 6 6 6 7 8 9 11 12 13 13 16 24 25 26 29 32 34 33 31 27 31 26
15 16 15 16 17 16 14 13 11 9 6 7 7 7 8 10 11 12 13 15 15 14 20 24 27 29 29 32 32 30 30 31
Wind_Direction
248 235 228 231 225 221 216 214 218 217 216 216 218 219 221 221 222 223 221 212 221 218 215 210 208 203 198 197 198 200 196 190
270 255 254 242 232 230 227 223 219 215 215 215 215 215 221 224 227 225 221 217 226 221 209 206 200 200 199 195 196 194 190 186
287 293 273 260 248 234 235 233 226 215 210 211 211 215 224 227 228 229 229 232 229 220 210 200 200 198 199 195 197 194 188 188
282 262 260 249 241 233 226 220 221 216 211 210 211 209 212 224 229 228 227 227 224 220 209 204 200 199 198 202 195 193 193 192
283 266 259 255 255 245 228 221 216 213 217 215 216 214 215 218 223 228 229 230 225 218 212 204 199 200 200 198 193 191 193 193
258 259 268 252 235 233 231 217 211 218 223 226 229 228 224 223 227 228 226 226 223 218 208 200 199 201 202 196 192 193 189 191
274 284 269 251 247 235 231 225 228 223 225 228 235 233 233 229 224 223 221 220 220 214 205 198 201 205 205 198 193 192 191 189
307 289 233 239 243 237 239 234 236 233 236 234 232 232 231 232 226 220 218 217 215 212 204 203 203 206 203 199 197 194 194 193
317 296 287 264 250 247 236 234 240 241 240 237 233 231 228 228 228 223 218 215 213 209 208 206 206 203 200 196 197 196 197 199
301 301 300 275 243 242 245 246 249 246 244 243 238 234 232 226 225 226 221 215 211 208 205 204 204 200 197 195 194 196 198 200
342 329 331 340 286 225 232 245 258 264 259 253 243 235 231 232 226 223 220 218 212 210 210 208 204 199 200 196 198 196 197 197
45 17 341 326 308 267 261 262 278 281 274 263 256 245 239 234 229 225 217 214 213 212 212 212 209 205 205 201 201 202 199 200
51 44 25 359 345 341 328 317 309 301 281 268 257 250 241 234 226 223 216 211 204 204 209 211 212 213 206 204 207 210 208 207
51 43 37 38 25 17 355 346 335 310 289 275 262 249 241 231 224 217 215 203 199 197 200 204 211 209 213 212 205 208 210 216
51 39 31 37 41 25 7 359 352 332 310 290 272 256 246 236 230 217 205 202 202 200 201 201 208 209 208 205 206 212 214 215
64 54 41 37 36 27 18 7 7 352 336 318 286 264 255 247 235 228 229 222 211 212 210 201 202 212 212 209 207 207 210 211
61 56 42 46 43 35 25 16 6 358 351 331 301 281 264 256 250 249 245 246 233 232 229 225 227 222 220 216 215 210 203 202
59 47 40 38 34 26 19 18 14 353 333 328 317 274 266 254 250 259 260 246 246 241 240 236 239 228 230 221 216 211 196 211
64 56 48 41 24 16 13 10 9 357 335 313 293 286 274 255 248 249 256 259 256 249 239 237 235 238 237 226 209 203 210 212
66 56 48 38 27 17 12 10 4 354 340 324 312 297 291 279 269 258 251 252 252 253 246 236 238 242 231 218 203 206 209 216